This is the latest recevied weather packets stored in our database for station/object YO8SDE-8. If no packets are shown the sender has not sent any weather packets the latest 10 day(s).
| Time | Temp. | Humidity | Pressure | Rain* | Wind** | Luminosity | Snow |
|---|---|---|---|---|---|---|---|
| 1778109058 | 14.44° C | 63% | 1001.5 hPa | 0 mm | - | - | - |
| 1778108758 | 14.44° C | 62% | 1001.3 hPa | 0 mm | - | - | - |
| 1778108458 | 15° C | 62% | 1001.3 hPa | 0 mm | - | - | - |
| 1778108158 | 15° C | 62% | 1001.1 hPa | 0 mm | - | - | - |
| 1778107858 | 15° C | 62% | 1001.1 hPa | 0 mm | - | - | - |
| 1778107558 | 15° C | 63% | 1001.1 hPa | 0 mm | - | - | - |
| 1778107258 | 14.44° C | 63% | 1001 hPa | 0 mm | - | - | - |
| 1778106958 | 14.44° C | 64% | 1001 hPa | 0 mm | - | - | - |
| 1778106658 | 14.44° C | 64% | 1001.1 hPa | 0 mm | - | - | - |
| 1778106358 | 13.89° C | 63% | 1001.1 hPa | 0 mm | - | - | - |
| 1778106058 | 13.89° C | 63% | 1001.1 hPa | 0 mm | - | - | - |
| 1778105758 | 13.89° C | 61% | 1001.2 hPa | 0 mm | - | - | - |
| 1778105458 | 13.89° C | 62% | 1001.1 hPa | 0 mm | - | - | - |
| 1778105158 | 13.89° C | 62% | 1000.9 hPa | 0 mm | - | - | - |
| 1778104858 | 14.44° C | 61% | 1000.8 hPa | 0 mm | - | - | - |
| 1778104558 | 14.44° C | 59% | 1000.8 hPa | 0 mm | - | - | - |
| 1778104258 | 14.44° C | 58% | 1000.8 hPa | 0 mm | - | - | - |
| 1778103958 | 15° C | 57% | 1000.8 hPa | 0 mm | - | - | - |
| 1778103658 | 15.56° C | 56% | 1000.8 hPa | 0 mm | - | - | - |
| 1778103358 | 15.56° C | 56% | 1000.7 hPa | 0 mm | - | - | - |
| 1778103058 | 16.11° C | 55% | 1000.7 hPa | 0 mm | - | - | - |
| 1778102758 | 16.67° C | 54% | 1000.5 hPa | 0 mm | - | - | - |
| 1778102458 | 16.67° C | 53% | 1000.6 hPa | 0 mm | - | - | - |
| 1778102158 | 16.67° C | 53% | 1000.4 hPa | 0 mm | - | - | - |
| 1778101858 | 17.22° C | 53% | 1000.4 hPa | 0 mm | - | - | - |
* Rain latest hour (hover to see other rain measurements)
** Current wind speed in m/s (hover to see current wind gust speed)